Location: Clayton (historical)
(34.0300°N, 118.0259°W)
Time: 09:29:49
(UTC+00:00)

Hubble Space Telescope - Pass Details

Date: 22 January 2021
Orbit: 536 x 539 km, 28.5° (Epoch: 26 February)

Event Time Altitude Azimuth Distance (km) Brightness Sun altitude
Rises 01:44:41 0° 249° (WSW) 2,672 7.0 -7.1°
Reaches altitude 10° 01:47:04 10° 240° (WSW) 1,782 5.0 -7.6°
Maximum altitude 01:50:50 35° 174° (S) 871 2.0 -8.3°
Drops below altitude 10° 01:54:37 10° 108° (ESE) 1,785 2.9 -9.1°
Enters shadow 01:55:06 - 105° (ESE) 1,959 3.1 -9.2°
